1513414800.24,64891,7.81,71614.0,-10.69,-12.83,-12.79,0,*69
1513414801.51,64892,7.81,71614.3,-10.69,-12.83,-12.79,0,*6A
1513414802.75,64893,7.81,71618.3,-10.69,-12.93,-12.79,0,*6A
1513414804.0,64894,7.81,71614.8,-10.69,-12.97,-12.71,0,*61
1513414805.27,64895,7.81,71618.0,-10.69,-12.83,-12.71,0,*65
1513414806.54,64896,7.81,71614.8,-10.69,-12.83,-12.71,0,*66
1513414807.81,64897,7.81,71612.3,-10.67,-12.89,-12.71,0,*63
1513414809.08,64898,7.81,71616.8,-10.69,-12.79,-12.71,0,*6D
1513414810.34,64899,7.81,71616.8,-10.69,-12.83,-12.65,0,*6C
1513414811.61,64900,7.81,71616.8,-10.71,-12.93,-12.71,0,*60
1513414812.83,64901,7.81,71618.3,-10.69,-12.97,-12.93,0,*60
1513414814.07,64902,7.81,71614.5,-10.69,-12.93,-12.83,0,*66
1513414815.34,64903,7.81,71614.5,-10.71,-12.93,-12.83,0,*6E
1513414816.63,64904,7.81,71616.5,-10.71,-12.83,-12.79,0,*6D
1513414817.9,64905,7.81,71616.3,-10.71,-12.93,-12.79,0,*6D
1513414819.18,64906,7.81,71618.0,-10.71,-12.83,-12.65,0,*62
1513414820.47,64907,7.81,71612.8,-10.71,-12.83,-12.71,0,*66
1513414821.73,64908,7.81,71616.5,-10.69,-12.83,-12.79,0,*68
1513414822.98,64909,7.81,71612.5,-10.69,-12.93,-12.79,0,*68
1513414824.22,64910,7.81,71614.5,-10.69,-12.93,-12.79,0,*60
1513414825.47,64911,7.81,71612.5,-10.69,-12.97,-12.83,0,*60
1513414826.71,64912,7.81,71616.8,-10.69,-12.97,-12.83,0,*63
1513414827.97,64913,7.81,71618.3,-10.69,-12.83,-12.83,0,*67
1513414829.23,64914,7.81,71614.0,-10.71,-12.97,-12.83,0,*6C
1513414830.48,64915,7.81,71612.5,-10.71,-12.97,-12.93,0,*6C
1513414831.74,64916,7.81,71616.8,-10.71,-12.93,-12.83,0,*6A
1513414833.03,64917,7.81,71616.8,-10.71,-12.83,-12.71,0,*67
1513414834.3,64918,7.81,71616.8,-10.71,-12.97,-12.83,0,*60
1513414835.57,64919,7.81,71614.8,-10.73,-13.01,-12.83,0,*6D
1513414836.84,64920,7.81,71610.8,-10.71,-12.93,-12.79,0,*6A
1513414838.08,64921,7.81,71612.8,-10.73,-12.97,-12.83,0,*68
1513414839.35,64922,7.81,71610.8,-10.71,-12.97,-12.83,0,*69
1513414840.62,64923,7.81,71610.8,-10.71,-12.97,-12.79,0,*6D
1513414841.89,64924,7.81,71608.8,-10.71,-12.93,-12.79,0,*6E
1513414843.15,64925,7.81,71608.5,-10.71,-12.93,-12.83,0,*6A
1513414844.4,64926,7.81,71610.0,-10.73,-12.97,-12.83,0,*6F
1513414845.67,64927,7.81,71616.3,-10.71,-12.93,-12.71,0,*65
1513414846.92,64928,7.81,71614.8,-10.73,-12.89,-12.71,0,*63
1513414848.21,64929,7.81,71610.8,-10.71,-12.83,-12.71,0,*6A
1513414849.46,64930,7.81,71610.0,-10.73,-12.89,-12.75,0,*6E
1513414850.73,64931,7.81,71614.8,-10.71,-12.97,-12.79,0,*6E
1513414851.97,64932,7.81,71612.3,-10.73,-12.97,-12.83,0,*6A
1513414853.22,64933,7.81,71618.5,-10.73,-12.97,-12.79,0,*6E
1513414854.48,64934,7.81,71612.0,-10.71,-12.93,-12.83,0,*6A
1513414855.73,64935,7.81,71612.3,-10.73,-13.01,-12.89,0,*69
1513414856.98,64936,7.81,71608.3,-10.73,-13.01,-12.89,0,*6A
1513414858.25,64937,7.81,71610.3,-10.71,-12.93,-12.79,0,*6C
1513414859.47,64938,7.81,71610.5,-10.73,-13.11,-12.97,0,*6A
1513414860.74,64939,7.81,71608.0,-10.73,-12.83,-12.71,0,*69
1513414862.01,64940,7.81,71610.3,-10.71,-12.97,-12.79,0,*68
1513414863.25,64941,7.81,71604.3,-10.73,-12.89,-12.75,0,*68
1513414864.52,64942,7.81,71610.8,-10.73,-12.83,-12.75,0,*61
1513414865.77,64943,7.81,71608.8,-10.73,-12.89,-12.71,0,*6E
1513414867.04,64944,7.81,71608.5,-10.73,-12.83,-12.71,0,*63
1513414868.31,64945,7.81,71608.8,-10.73,-12.83,-12.71,0,*62
1513414869.56,64946,7.81,71608.8,-10.73,-12.89,-12.75,0,*6F
1513414870.83,64947,7.81,71612.8,-10.73,-12.75,-12.61,0,*68
1513414872.08,64948,7.81,71610.3,-10.73,-12.97,-12.83,0,*67
1513414873.33,64949,7.81,71612.0,-10.73,-12.89,-12.71,0,*64
1513414874.62,64950,7.81,71614.3,-10.71,-12.83,-12.71,0,*64
1513414875.88,64951,7.81,71614.0,-10.73,-12.83,-12.61,0,*66
1513414877.18,64952,7.81,71608.8,-10.71,-12.79,-12.71,0,*63
1513414878.45,64953,7.81,71614.3,-10.71,-12.93,-12.71,0,*66
1513414879.74,64954,7.81,71612.8,-10.71,-12.83,-12.71,0,*60
1513414880.99,64955,7.81,71610.8,-10.73,-12.93,-12.83,0,*6F
1513414882.28,64956,7.81,71612.3,-10.71,-12.79,-12.71,0,*67
1513414883.57,64957,7.81,71614.3,-10.71,-12.83,-12.79,0,*6B
1513414884.82,64958,7.81,71616.8,-10.73,-12.89,-12.71,0,*64
1513414886.07,64959,7.81,71612.0,-10.73,-12.97,-12.75,0,*6E
1513414887.34,64960,7.81,71614.5,-10.73,-12.83,-12.75,0,*61
1513414888.62,64961,7.81,71616.8,-10.71,-12.65,-12.57,0,*6A
1513414889.92,64962,7.81,71618.0,-10.71,-12.71,-12.53,0,*68
1513414891.21,64963,7.81,71614.3,-10.71,-12.83,-12.71,0,*64
1513414892.5,64964,7.81,71618.5,-10.71,-12.83,-12.71,0,*63
1513414893.78,64965,7.81,71616.0,-10.73,-12.79,-12.71,0,*65
1513414895.07,64966,7.81,71612.8,-10.71,-12.83,-12.71,0,*61
1513414896.33,64967,7.81,71616.3,-10.71,-12.93,-12.65,0,*64
1513414897.58,64968,7.81,71612.3,-10.73,-12.89,-12.71,0,*67
1513414898.84,64969,7.81,71616.8,-10.69,-12.83,-12.79,0,*6F
1513414900.09,64970,7.81,71618.3,-10.73,-12.97,-12.75,0,*65
1513414901.34,64971,7.81,71616.8,-10.73,-12.93,-12.79,0,*6C
1513414902.63,64972,7.81,71612.8,-10.71,-12.79,-12.65,0,*64
1513414903.89,64973,7.81,71616.0,-10.73,-12.71,-12.61,0,*6B
1513414905.16,64974,7.81,71616.3,-10.73,-12.71,-12.61,0,*6C
1513414906.41,64975,7.81,71616.5,-10.73,-12.89,-12.83,0,*66
1513414907.69,64976,7.81,71618.0,-10.71,-12.83,-12.79,0,*68
1513414908.98,64977,7.81,71620.5,-10.71,-12.83,-12.65,0,*64
1513414910.26,64978,7.81,71616.3,-10.71,-12.79,-12.65,0,*6E
1513414911.55,64979,7.81,71618.5,-10.71,-12.71,-12.65,0,*67
1513414912.84,64980,7.81,71620.0,-10.71,-12.79,-12.71,0,*6C
1513414914.13,64981,7.81,71618.5,-10.71,-12.71,-12.57,0,*61
1513414915.41,64982,7.81,71620.3,-10.71,-12.79,-12.65,0,*6B
1513414916.68,64983,7.81,71620.8,-10.73,-12.83,-12.75,0,*6C
1513414917.97,64984,7.81,71620.5,-10.71,-12.65,-12.53,0,*65
1513414919.24,64985,7.81,71616.3,-10.73,-12.61,-12.61,0,*63
1513414920.52,64986,7.81,71618.5,-10.71,-12.79,-12.65,0,*6F
1513414921.79,64987,7.81,71618.8,-10.73,-12.71,-12.57,0,*65
1513414923.08,64988,7.81,71618.0,-10.71,-12.65,-12.53,0,*69
1513414924.37,64989,7.81,71616.3,-10.71,-12.79,-12.65,0,*60
1513414925.66,64990,7.81,71616.3,-10.71,-12.71,-12.57,0,*61
1513414926.94,64991,7.81,71616.0,-10.71,-12.71,-12.57,0,*60
1513414928.21,64992,7.81,71620.8,-10.73,-12.83,-12.75,0,*6C
1513414929.5,64993,7.81,71620.3,-10.71,-12.71,-12.57,0,*62
1513414930.79,64994,7.81,71618.8,-10.71,-12.79,-12.65,0,*6C
1513414932.06,64995,7.81,71618.3,-10.69,-12.71,-12.71,0,*69
1513414933.32,64996,7.81,71618.0,-10.69,-12.79,-12.65,0,*67
1513414934.61,64997,7.81,71620.3,-10.71,-12.83,-12.79,0,*67
1513414935.89,64998,7.81,71622.5,-10.71,-12.71,-12.65,0,*68
1513414937.18,64999,7.81,71622.3,-10.71,-12.71,-12.65,0,*69
1513414938.47,65000,7.81,71618.8,-10.71,-12.83,-12.71,0,*69
1513414939.76,65001,7.81,71618.8,-10.71,-12.79,-12.65,0,*68
1513414941.02,65002,7.81,71620.5,-10.69,-12.71,-12.65,0,*6A
1513414942.3,65003,7.81,71620.3,-10.71,-12.79,-12.65,0,*6A
1513414943.6,65004,7.81,71618.0,-10.71,-12.79,-12.71,0,*68
1513414944.89,65005,7.81,71616.5,-10.71,-12.83,-12.71,0,*6C
1513414946.18,65006,7.81,71620.5,-10.71,-12.83,-12.71,0,*6F
1513414947.46,65007,7.81,71618.8,-10.73,-12.71,-12.71,0,*61
1513414948.72,65008,7.81,71614.3,-10.69,-12.83,-12.83,0,*65
1513414950.01,65009,7.81,71618.5,-10.71,-12.79,-12.71,0,*65
1513414951.28,65010,7.81,71616.8,-10.71,-12.93,-12.71,0,*69
1513414952.58,65011,7.81,71618.0,-10.71,-12.79,-12.71,0,*6C
1513414953.87,65012,7.81,71618.8,-10.71,-12.71,-12.65,0,*62
1513414955.16,65013,7.81,71618.8,-10.71,-12.83,-12.71,0,*6B
1513414956.43,65014,7.81,71622.8,-10.73,-12.83,-12.75,0,*6A
1513414957.72,65015,7.81,71622.0,-10.71,-12.83,-12.71,0,*6D
1513414958.98,65016,7.81,71620.5,-10.71,-12.93,-12.83,0,*62
1513414960.27,65017,7.81,71618.3,-10.71,-12.79,-12.65,0,*6F
1513414961.54,65018,7.81,71620.8,-10.71,-12.97,-12.79,0,*6D
1513414962.83,65019,7.81,71622.0,-10.71,-12.79,-12.79,0,*6C
1513414964.1,65020,7.81,71616.3,-10.69,-12.83,-12.71,0,*62
1513414965.38,65021,7.81,71616.8,-10.71,-12.65,-12.65,0,*67
1513414966.67,65022,7.81,71620.0,-10.71,-12.65,-12.57,0,*65
1513414967.95,65023,7.81,71618.0,-10.71,-12.71,-12.65,0,*60
1513414969.25,65024,7.81,71618.3,-10.71,-12.79,-12.71,0,*6A
1513414970.53,65025,7.81,71618.5,-10.71,-12.79,-12.65,0,*6E
1513414971.81,65026,7.81,71620.5,-10.73,-12.83,-12.71,0,*6F
1513414973.09,65027,7.81,71618.3,-10.71,-12.83,-12.79,0,*64
1513414974.38,65028,7.81,71616.3,-10.71,-12.71,-12.65,0,*6B
1513414975.67,65029,7.81,71622.3,-10.71,-12.65,-12.53,0,*6A
1513414976.94,65030,7.81,71620.3,-10.69,-12.79,-12.71,0,*66
1513414978.19,65031,7.81,71624.3,-10.69,-12.93,-12.71,0,*63
1513414979.46,65032,7.81,71618.5,-10.69,-12.83,-12.71,0,*61
1513414980.7,65033,7.81,71620.8,-10.69,-12.93,-12.83,0,*6C
1513414982.0,65034,7.81,71618.8,-10.71,-12.79,-12.71,0,*6B
1513414983.29,65035,7.81,71616.8,-10.71,-12.83,-12.71,0,*6F
1513414984.55,65036,7.81,71618.3,-10.71,-12.93,-12.83,0,*60
1513414985.8,65037,7.81,71616.0,-10.71,-12.97,-12.93,0,*64
1513414987.04,65038,7.81,71622.0,-10.71,-12.97,-12.93,0,*6B
1513414988.28,65039,7.81,71624.0,-10.71,-13.07,-12.93,0,*62
1513414989.54,65040,7.81,71616.8,-10.71,-12.97,-12.83,0,*65
1513414990.81,65041,7.81,71620.8,-10.71,-12.97,-12.79,0,*61
1513414992.05,65042,7.81,71626.8,-10.71,-13.11,-12.97,0,*6D
1513414993.29,65043,7.81,71622.0,-10.71,-13.07,-12.97,0,*6B
1513414994.56,65044,7.88,71620.0,-10.71,-12.93,-12.79,0,*60
1513414995.82,65045,7.81,71618.5,-10.71,-12.97,-12.83,0,*60
1513414997.07,65046,7.81,71616.3,-10.71,-12.97,-12.93,0,*62
1513414998.31,65047,7.81,71616.8,-10.71,-13.07,-12.93,0,*6B
1513414999.57,65048,7.81,71616.0,-10.71,-12.97,-12.83,0,*6D
1513415000.84,65049,7.81,71616.0,-10.71,-12.97,-12.79,0,*69
1513415002.1,65050,7.81,71616.5,-10.71,-12.93,-12.83,0,*60
1513415003.33,65051,7.81,71616.3,-10.73,-12.97,-12.89,0,*6D
1513415004.59,65052,7.81,71616.0,-10.71,-12.93,-12.83,0,*62
1513415005.83,65053,7.81,71612.3,-10.71,-12.97,-12.97,0,*62
1513415007.1,65054,7.81,71614.0,-10.71,-12.93,-12.79,0,*61
1513415008.34,65055,7.81,71614.8,-10.71,-13.07,-12.93,0,*68
1513415009.56,65056,7.81,71616.3,-10.73,-13.15,-12.97,0,*6E
1513415010.8,65057,7.81,71616.0,-10.73,-13.11,-13.01,0,*65
1513415012.06,65058,7.81,71618.0,-10.71,-13.11,-13.01,0,*68
1513415013.27,65059,7.81,71616.5,-10.73,-13.15,-12.97,0,*61
1513415014.52,65060,7.81,71618.8,-10.73,-13.01,-12.89,0,*61
1513415015.79,65061,7.81,71612.0,-10.73,-13.01,-12.83,0,*6A
1513415017.03,65062,7.81,71618.8,-10.73,-12.97,-12.83,0,*67
1513415018.28,65063,7.81,71618.3,-10.73,-12.97,-12.83,0,*66
1513415019.52,65064,7.81,71622.8,-10.73,-13.01,-12.89,0,*65
1513415020.75,65065,7.81,71618.3,-10.73,-13.11,-12.89,0,*65
1513415021.99,65066,7.81,71620.3,-10.73,-13.01,-12.89,0,*67
1513415023.29,65067,7.81,71618.5,-10.71,-12.79,-12.71,0,*6D
1513415024.53,65068,7.81,71618.8,-10.73,-12.97,-12.83,0,*6D
1513415025.78,65069,7.81,71622.3,-10.73,-12.97,-12.83,0,*6C
1513415027.07,65070,7.81,71612.8,-10.71,-12.83,-12.71,0,*6E
1513415028.31,65071,7.81,71614.5,-10.73,-12.89,-12.65,0,*62
1513415029.57,65072,7.81,71612.8,-10.73,-12.83,-12.57,0,*6A
1513415030.85,65073,7.81,71614.8,-10.71,-12.93,-12.71,0,*6C
1513415032.07,65074,7.81,71618.3,-10.73,-12.97,-12.89,0,*6A
1513415033.32,65075,7.81,71610.5,-10.73,-12.97,-12.79,0,*64
1513415034.54,65076,7.81,71610.5,-10.73,-13.11,-12.89,0,*67
1513415035.78,65077,7.81,71612.8,-10.73,-12.97,-12.75,0,*6A
1513415037.03,65078,7.81,71620.8,-10.73,-12.97,-12.75,0,*65
1513415038.3,65079,7.81,71614.3,-10.73,-12.83,-12.71,0,*65
1513415039.58,65080,7.81,71610.3,-10.73,-13.01,-12.83,0,*65
1513415040.86,65081,7.81,71612.3,-10.71,-12.79,-12.65,0,*60
1513415042.13,65082,7.81,71612.8,-10.71,-12.89,-12.71,0,*69
1513415043.38,65083,7.81,71612.3,-10.73,-12.89,-12.71,0,*6A
1513415044.67,65084,7.81,71616.5,-10.71,-12.83,-12.71,0,*65
1513415045.93,65085,7.81,71614.0,-10.71,-12.93,-12.65,0,*60
1513415047.2,65086,7.81,71612.8,-10.71,-12.97,-12.79,0,*6A
1513415048.44,65087,7.81,71614.8,-10.71,-13.11,-12.97,0,*64
1513415049.66,65088,7.81,71612.3,-10.73,-13.11,-12.89,0,*66
1513415050.93,65089,7.81,71612.0,-10.73,-13.01,-12.75,0,*65
1513415052.21,65090,7.81,71612.8,-10.73,-12.83,-12.71,0,*62
1513415053.49,65091,7.81,71610.3,-10.71,-12.83,-12.57,0,*65
1513415054.77,65092,7.81,71610.0,-10.71,-12.83,-12.65,0,*67
1513415056.04,65093,7.81,71612.0,-10.71,-12.97,-12.83,0,*6B
1513415057.25,65094,7.81,71606.3,-10.73,-13.15,-12.89,0,*6F
1513415058.52,65095,7.81,71610.5,-10.71,-13.11,-12.83,0,*62
1513415059.78,65096,7.81,71604.8,-10.71,-13.07,-12.83,0,*66
1513415061.02,65097,7.81,71614.5,-10.73,-12.97,-12.83,0,*6D
1513415062.27,65098,7.81,71614.3,-10.73,-12.97,-12.75,0,*6B
1513415063.54,65099,7.81,71612.5,-10.71,-12.93,-12.71,0,*68
1513415064.81,65100,7.81,71610.8,-10.71,-12.93,-12.83,0,*64
1513415066.09,65101,7.81,71604.8,-10.71,-12.83,-12.65,0,*6C
1513415067.37,65102,7.81,71610.3,-10.73,-12.79,-12.71,0,*6D
1513415068.65,65103,7.81,71608.0,-10.71,-12.83,-12.65,0,*6E
1513415069.92,65104,7.81,71608.5,-10.71,-12.97,-12.79,0,*61
1513415071.18,65105,7.81,71610.0,-10.71,-12.97,-12.83,0,*65
1513415072.45,65106,7.81,71610.5,-10.71,-12.93,-12.79,0,*67
1513415073.69,65107,7.81,71608.5,-10.71,-13.07,-12.93,0,*6E
1513415074.96,65108,7.81,71610.5,-10.71,-12.97,-12.79,0,*6D
1513415076.21,65109,7.81,71606.5,-10.73,-12.97,-12.75,0,*62
1513415077.47,65110,7.81,71606.0,-10.71,-12.97,-12.83,0,*61
1513415078.74,65111,7.81,71606.8,-10.71,-12.93,-12.79,0,*61
1513415080.02,65112,7.81,71606.0,-10.71,-12.93,-12.71,0,*6A
1513415081.28,65113,7.81,71604.3,-10.71,-12.93,-12.65,0,*6E
1513415082.55,65114,7.81,71606.5,-10.71,-12.93,-12.71,0,*6C
1513415083.81,65115,7.81,71610.8,-10.71,-12.97,-12.83,0,*64
1513415085.08,65116,7.81,71608.3,-10.71,-12.97,-12.83,0,*67
1513415086.3,65117,7.81,71610.8,-10.73,-13.11,-12.89,0,*61
1513415087.54,65118,7.81,71612.0,-10.69,-12.93,-12.65,0,*6C
1513415088.78,65119,7.81,71616.8,-10.69,-12.97,-12.79,0,*64
1513415090.03,65120,7.81,71614.5,-10.69,-12.93,-12.79,0,*6A
1513415091.27,65121,7.81,71608.5,-10.69,-12.93,-12.79,0,*6B
1513415092.52,65122,7.81,71608.8,-10.69,-12.97,-12.79,0,*6C
1513415093.76,65123,7.81,71612.5,-10.69,-12.93,-12.65,0,*64
1513415095.02,65124,7.81,71608.5,-10.69,-12.79,-12.57,0,*66
1513415096.29,65125,7.81,71600.0,-10.71,-12.93,-12.83,0,*63
1513415097.56,65126,7.81,71600.0,-10.71,-12.97,-12.79,0,*61
1513415098.82,65127,7.88,71608.3,-10.71,-12.93,-12.57,0,*68
1513415100.09,65128,7.81,71606.3,-10.71,-12.93,-12.71,0,*63
1513415101.36,65129,7.81,71610.3,-10.69,-12.71,-12.57,0,*63
1513415102.65,65130,7.81,71608.0,-10.67,-12.79,-12.61,0,*68
1513415103.92,65131,7.81,71610.5,-10.69,-12.83,-12.71,0,*63
1513415105.21,65132,7.81,71612.8,-10.67,-12.79,-12.61,0,*6A
1513415106.49,65133,7.81,71608.8,-10.67,-12.79,-12.65,0,*6F
1513415107.76,65134,7.81,71608.3,-10.67,-12.89,-12.79,0,*6A
1513415109.01,65135,7.81,71608.0,-10.69,-12.93,-12.83,0,*6B
1513415110.25,65136,7.81,71606.3,-10.69,-12.93,-12.79,0,*6D
1513415111.49,65137,7.81,71612.0,-10.69,-12.97,-12.83,0,*6D
1513415112.76,65138,7.81,71610.3,-10.67,-12.89,-12.65,0,*6B
1513415114.0,65139,7.81,71610.3,-10.69,-12.97,-12.83,0,*63
1513415115.24,65140,7.81,71606.0,-10.69,-13.07,-12.83,0,*65
1513415116.48,65141,7.81,71606.0,-10.69,-12.97,-12.79,0,*69
1513415117.72,65142,7.81,71610.3,-10.69,-12.93,-12.65,0,*63
1513415118.99,65143,7.81,71612.3,-10.67,-12.93,-12.65,0,*6C
1513415120.2,65144,7.81,71608.8,-10.69,-12.97,-12.93,0,*68
1513415121.47,65145,7.81,71608.8,-10.69,-12.83,-12.71,0,*60
1513415122.72,65146,7.81,71606.8,-10.69,-12.97,-12.79,0,*6E
1513415123.99,65147,7.81,71604.8,-10.67,-12.89,-12.75,0,*62
1513415125.25,65148,7.81,71608.3,-10.67,-12.89,-12.75,0,*6D
1513415126.5,65149,7.81,71610.3,-10.69,-12.97,-12.79,0,*61
1513415127.77,65150,7.81,71610.0,-10.69,-12.79,-12.71,0,*61
1513415129.04,65151,7.81,71606.8,-10.69,-12.83,-12.71,0,*65
1513415130.26,65152,7.81,71606.3,-10.69,-13.11,-12.93,0,*60
1513415131.53,65153,7.81,71606.0,-10.67,-12.93,-12.75,0,*6C
1513415132.77,65154,7.81,71608.5,-10.69,-12.89,-12.75,0,*6E
1513415133.99,65155,7.81,71608.3,-10.69,-12.97,-12.93,0,*68
1513415135.24,65156,7.81,71608.3,-10.69,-12.93,-12.79,0,*6B
1513415136.48,65157,7.81,71608.5,-10.69,-12.97,-12.79,0,*6E
1513415137.72,65158,7.81,71610.0,-10.67,-13.07,-12.93,0,*63
1513415138.94,65159,7.81,71606.8,-10.69,-13.07,-12.93,0,*6C
1513415140.18,65160,7.88,71608.8,-10.69,-13.07,-12.83,0,*67
1513415141.42,65161,7.81,71606.5,-10.69,-12.97,-12.79,0,*6B
1513415142.7,65162,7.81,71610.5,-10.67,-12.93,-12.79,0,*62
1513415143.94,65163,7.81,71608.5,-10.69,-12.97,-12.83,0,*6C
1513415145.18,65164,7.81,71610.0,-10.69,-12.97,-12.83,0,*6B
1513415146.42,65165,7.81,71608.8,-10.69,-13.07,-12.79,0,*67
1513415147.67,65166,7.81,71608.3,-10.69,-13.01,-12.93,0,*66
1513415148.94,65167,7.81,71608.5,-10.67,-13.01,-12.89,0,*62
1513415150.15,65168,7.81,71606.5,-10.65,-13.07,-12.93,0,*62
1513415151.37,65169,7.81,71610.0,-10.69,-12.97,-12.93,0,*67
1513415152.59,65170,7.81,71610.5,-10.69,-13.07,-12.97,0,*63
1513415153.86,65171,7.81,71608.8,-10.67,-12.93,-12.75,0,*6C
1513415155.1,65172,7.81,71608.0,-10.67,-12.93,-12.93,0,*67
1513415156.36,65173,7.81,71608.0,-10.67,-13.07,-13.01,0,*60
1513415157.58,65174,7.81,71608.8,-10.69,-13.07,-12.97,0,*67
1513415158.82,65175,7.81,71608.0,-10.67,-13.07,-13.07,0,*60
1513415160.08,65176,7.81,71608.3,-10.67,-13.07,-13.01,0,*65
1513415161.29,65177,7.81,71608.0,-10.69,-13.07,-12.97,0,*64
1513415162.51,65178,7.81,71610.5,-10.69,-13.19,-13.11,0,*6B
1513415163.75,65179,7.88,71614.8,-10.69,-12.93,-12.83,0,*63
1513415164.97,65180,7.81,71604.5,-10.69,-13.11,-12.93,0,*6F
1513415166.21,65181,7.81,71606.5,-10.69,-12.97,-12.83,0,*60
1513415167.46,65182,7.81,71610.5,-10.69,-12.97,-12.83,0,*63
1513415168.67,65183,7.81,71602.3,-10.69,-12.97,-12.97,0,*67
1513415169.89,65184,7.81,71604.5,-10.69,-12.97,-12.93,0,*64
1513415171.16,65185,7.81,71608.3,-10.67,-12.89,-12.75,0,*6C
1513415172.43,65186,7.81,71608.5,-10.67,-12.89,-12.75,0,*6F
1513415173.67,65187,7.81,71606.8,-10.67,-12.93,-12.89,0,*66
1513415174.94,65188,7.81,71606.0,-10.67,-13.01,-12.93,0,*68
1513415176.16,65189,7.81,71606.0,-10.69,-13.11,-12.97,0,*62
1513415177.38,65190,7.81,71608.0,-10.65,-13.07,-12.93,0,*65
1513415178.59,65191,7.81,71608.5,-10.69,-13.07,-12.93,0,*68
1513415179.88,65192,7.81,71610.5,-10.67,-13.01,-13.01,0,*69
1513415181.18,65193,7.81,71604.8,-10.67,-13.01,-12.79,0,*66
1513415182.45,65194,7.81,71610.8,-10.67,-12.93,-12.75,0,*67
1513415183.67,65195,7.81,71610.0,-10.69,-13.11,-12.97,0,*6F
1513415184.88,65196,7.81,71608.5,-10.69,-13.11,-12.97,0,*6C
1513415186.1,65197,7.81,71610.5,-10.69,-13.07,-12.93,0,*6E
1513415187.31,65198,7.81,71608.0,-10.69,-13.19,-13.07,0,*62
1513415188.53,65199,7.81,71610.8,-10.69,-13.11,-12.93,0,*67
1513415189.78,65200,7.81,71608.5,-10.69,-12.93,-12.79,0,*6B
1513415191.05,65201,7.81,71608.3,-10.67,-12.93,-12.79,0,*64
1513415192.32,65202,7.81,71608.5,-10.67,-13.01,-12.97,0,*6D
1513415193.58,65203,7.81,71604.8,-10.67,-12.89,-12.75,0,*61
1513415194.85,65204,7.81,71608.0,-10.69,-12.83,-12.83,0,*6B
1513415196.09,65205,7.81,71608.5,-10.67,-12.93,-12.89,0,*6F
1513415197.36,65206,7.81,71606.3,-10.67,-13.01,-12.93,0,*6D
1513415198.6,65207,7.81,71604.8,-10.67,-13.07,-13.07,0,*66
1513415199.81,65208,7.81,71606.0,-10.69,-13.11,-12.97,0,*68
1513415201.06,65209,7.81,71606.5,-10.67,-13.07,-12.93,0,*64
1513415202.3,65210,7.81,71604.8,-10.67,-13.07,-12.93,0,*6C
1513415203.57,65211,7.81,71606.3,-10.67,-12.89,-12.83,0,*6B
1513415204.81,65212,7.81,71608.3,-10.67,-12.93,-12.93,0,*62
1513415206.06,65213,7.81,71606.8,-10.67,-12.93,-12.89,0,*68
1513415207.35,65214,7.81,71608.0,-10.67,-13.01,-12.79,0,*6A
1513415208.62,65215,7.81,71602.5,-10.67,-13.01,-12.93,0,*6F
1513415209.86,65216,7.81,71604.5,-10.63,-13.07,-12.93,0,*6E
1513415211.07,65217,7.81,71600.5,-10.65,-13.07,-13.07,0,*65
1513415212.29,65218,7.81,71606.3,-10.69,-13.11,-12.97,0,*69
1513415213.5,65219,7.81,71608.0,-10.65,-13.07,-12.93,0,*67
1513415214.74,65220,7.81,71600.5,-10.65,-13.07,-13.01,0,*67
1513415216.0,65221,7.81,71600.5,-10.67,-13.15,-13.01,0,*67
1513415217.23,65222,7.81,71604.3,-10.67,-13.07,-13.07,0,*61
1513415218.48,65223,7.81,71606.3,-10.67,-13.19,-13.07,0,*6F
1513415219.74,65224,7.81,71608.3,-10.67,-13.07,-13.01,0,*61
1513415221.01,65225,7.81,71610.3,-10.67,-13.01,-12.89,0,*67
1513415222.24,65226,7.81,71610.0,-10.67,-13.15,-13.07,0,*66
1513415223.48,65227,7.81,71612.0,-10.65,-13.29,-13.15,0,*69
1513415224.69,65228,7.81,71610.5,-10.65,-13.19,-13.15,0,*65
1513415225.93,65229,7.81,71612.8,-10.67,-13.19,-13.07,0,*65
1513415227.19,65230,7.81,71612.5,-10.67,-13.15,-13.01,0,*67
1513415228.43,65231,7.81,71608.8,-10.67,-13.19,-13.15,0,*6F
1513415229.67,65232,7.81,71608.8,-10.67,-13.07,-12.93,0,*6C
1513415230.89,65233,7.81,71606.5,-10.69,-13.19,-13.07,0,*60
1513415232.13,65234,7.81,71608.0,-10.67,-13.07,-12.93,0,*6A
1513415233.42,65235,7.81,71608.3,-10.67,-13.01,-13.01,0,*67
1513415234.66,65236,7.81,71612.5,-10.67,-13.07,-12.93,0,*68
1513415235.88,65237,7.81,71616.8,-10.65,-13.19,-13.07,0,*68
1513415237.14,65238,7.81,71606.0,-10.67,-13.15,-13.01,0,*6F
1513415238.37,65239,7.81,71606.0,-10.67,-13.15,-12.93,0,*64
1513415239.59,65240,7.81,71610.5,-10.69,-13.23,-13.07,0,*6D
1513415240.85,65241,7.81,71608.8,-10.67,-13.07,-13.01,0,*62
1513415242.12,65242,7.81,71614.8,-10.67,-13.01,-12.93,0,*6D
1513415243.34,65243,7.81,71614.0,-10.65,-12.93,-12.89,0,*6F
1513415244.6,65244,7.81,71608.0,-10.63,-13.07,-13.01,0,*63
1513415245.81,65245,7.88,71612.3,-10.65,-13.15,-12.89,0,*66
1513415247.07,65246,7.81,71612.3,-10.67,-13.07,-13.01,0,*65
1513415248.37,65247,7.81,71612.8,-10.67,-13.01,-12.79,0,*6C
1513415249.64,65248,7.81,71612.3,-10.67,-12.93,-12.79,0,*69
1513415250.88,65249,7.81,71610.8,-10.67,-13.07,-12.93,0,*60
1513415252.09,65250,7.88,71616.5,-10.65,-13.15,-13.07,0,*65
1513415253.32,65251,7.81,71610.8,-10.65,-13.15,-13.01,0,*62
1513415254.56,65252,7.81,71614.3,-10.65,-13.07,-13.01,0,*62
1513415255.76,65253,7.81,71610.8,-10.65,-13.15,-13.15,0,*65
1513415257.03,65254,7.88,71614.8,-10.65,-13.01,-12.79,0,*6C
1513415258.3,65255,7.81,71612.5,-10.65,-13.01,-12.79,0,*6D
1513415259.52,65256,7.81,71616.8,-10.65,-12.93,-12.89,0,*6B
1513415260.77,65257,7.81,71616.3,-10.65,-13.01,-12.93,0,*6B
1513415261.99,65258,7.81,71614.0,-10.65,-12.93,-12.89,0,*65
1513415263.26,65259,7.81,71612.8,-10.65,-13.01,-12.79,0,*61
1513415264.5,65260,7.81,71614.0,-10.65,-12.93,-12.75,0,*6D
1513415265.75,65261,7.88,71620.3,-10.65,-13.01,-12.93,0,*6E
1513415266.96,65262,7.81,71614.0,-10.65,-13.07,-12.93,0,*6B
1513415268.21,65263,7.81,71614.3,-10.65,-12.93,-12.79,0,*62
1513415269.45,65264,7.81,71616.8,-10.63,-13.07,-12.93,0,*6B
1513415270.71,65265,7.81,71612.0,-10.63,-13.07,-13.01,0,*60
1513415271.92,65266,7.81,71614.5,-10.65,-13.07,-12.93,0,*6F
1513415273.16,65267,7.81,71616.0,-10.65,-13.19,-13.01,0,*6B
1513415274.38,65268,7.81,71614.3,-10.65,-13.19,-13.15,0,*61
1513415275.64,65269,7.81,71614.3,-10.63,-13.19,-13.01,0,*63
1513415276.9,65270,7.81,71610.8,-10.63,-13.01,-12.89,0,*63
1513415278.12,65271,7.81,71614.0,-10.65,-13.07,-12.93,0,*69
1513415279.34,65272,7.81,71614.0,-10.65,-13.07,-12.89,0,*61
1513415280.61,65273,7.88,71616.3,-10.65,-13.01,-12.79,0,*69
1513415281.83,65274,7.81,71616.0,-10.65,-12.93,-12.89,0,*6B
1513415283.04,65275,7.81,71612.8,-10.65,-13.07,-12.93,0,*6D
1513415284.28,65276,7.81,71614.0,-10.63,-13.07,-12.89,0,*63
1513415285.55,65277,7.88,71616.3,-10.63,-13.01,-12.89,0,*64
1513415286.79,65278,7.81,71618.8,-10.65,-12.93,-12.79,0,*68
1513415288.04,65279,7.88,71616.8,-10.65,-12.93,-12.79,0,*69
1513415289.28,65280,7.88,71616.0,-10.63,-13.07,-12.89,0,*6A
1513415290.55,65281,7.81,71618.0,-10.63,-13.01,-12.89,0,*6D
1513415291.78,65282,7.81,71616.0,-10.63,-13.07,-12.93,0,*63
1513415293.02,65283,7.81,71616.0,-10.65,-13.15,-13.01,0,*6D
1513415294.27,65284,7.88,71616.5,-10.63,-13.15,-13.01,0,*6C
1513415295.48,65285,7.81,71616.8,-10.65,-13.15,-13.07,0,*6D
1513415296.75,65286,7.88,71618.3,-10.65,-13.01,-12.75,0,*6F
1513415297.99,65287,7.81,71618.8,-10.65,-13.01,-12.93,0,*66
1513415299.24,65288,7.81,71612.8,-10.59,-13.11,-12.89,0,*6C
1513415300.49,65289,7.81,71616.3,-10.63,-13.15,-13.01,0,*61
1513415301.73,65290,7.81,71618.5,-10.63,-13.15,-12.93,0,*63